Flag for U.S.A. Weather past 2 weeks in Osage City, Kansas, U.S.A.

Now
67 °F

Fog.


Feels Like: 67 °F
Forecast: 64 / 85 °F
Wind: No wind

Location: Forbes Field

Current Time: Sep 17, 2014 at 11:08:17 AM

Latest Report: Sep 17, 2014 at 9:53 AM


Visibility: 4 mi

Pressure: 29.91 "Hg

Humidity: 93%

Dew point: 65 °F

Location of Osage CityLocation

Historic Weather in Osage City — Graph

°F

Osage City temperature yesterday

Maximum temperature yesterday: 74 °F (at 4:53 PM)
Minimum temperature yesterday: 45 °F (at 6:53 AM)
Average temperature yesterday: 60 °F

Past Weeks' High & Low Weather Summary

 TemperatureHumidityPressure
High94 °F (Sep 4, 1:53 PM)100% (Sep 13, 7:53 AM)30.43 "Hg (Sep 13, 7:53 AM)
Low37 °F (Sep 13, 4:53 AM)38% (Sep 4, 3:53 PM)29.49 "Hg (Sep 9, 11:53 PM)
Average67 °F74%30.05 "Hg
* Reported Sep 2 9:53 AM — Sep 17 9:53 AM, Osage City, Weather by CustomWeather, © 2014

Note: Actual official high and low records may vary slightly from our data, if they occured in-between our weather recording intervals... More about our weather records

Advertising

Osage City weather history for previous 24 hours

 ConditionsComfort  
Time TempWeatherWind HumidityBarometerVisibility
9:53 AM
Sep 17
67 °FFog.No wind93%29.91 "Hg4 mi
8:53 AM65 °FFog.7 mph97%29.90 "Hg2 mi
7:53 AM64 °FFog.5 mph97%29.90 "Hg2 mi
6:53 AM64 °FFog.6 mph94%29.87 "Hg5 mi
5:53 AM63 °FMostly cloudy.7 mph93%29.87 "Hg7 mi
4:53 AM63 °FOvercast.5 mph97%29.88 "Hg7 mi
3:53 AM63 °FPartly cloudy.5 mph93%29.91 "Hg9 mi
2:53 AM64 °FThunderstorms. Fog.8 mph90%29.94 "Hg6 mi
1:53 AM65 °FMostly cloudy.7 mph81%29.96 "Hg10 mi
12:53 AM64 °FPassing clouds.9 mph84%29.97 "Hg10 mi
12:03 AM64 °FMostly cloudy.8 mph81%30.01 "Hg10 mi
10:53 PM
Sep 16
63 °FOvercast.7 mph81%30.01 "Hg10 mi
9:53 PM63 °FPassing clouds.5 mph78%30.02 "Hg10 mi
8:53 PM63 °FClear.6 mph75%30.01 "Hg10 mi
7:53 PM66 °FSunny.3 mph68%30.01 "Hg10 mi
6:53 PM70 °FSunny.5 mph55%30.01 "Hg10 mi
5:53 PM74 °FSunny.7 mph46%30.03 "Hg10 mi
4:53 PM74 °FSunny.7 mph45%30.04 "Hg10 mi
3:53 PM73 °FSunny.8 mph48%30.07 "Hg10 mi
2:53 PM71 °FSunny.6 mph49%30.10 "Hg10 mi
1:53 PM70 °FSunny.6 mph49%30.14 "Hg10 mi
12:53 PM67 °FSunny.3 mph57%30.16 "Hg10 mi
11:53 AM65 °FSunny.7 mph59%30.19 "Hg10 mi
Weather by CustomWeather, © 2014

See weather overviewHow to use our weather pages